Theta_e
350 350 349 348 347 347 347 347 349 348 348 349 350 351 351 352 353 352 352 353 353 354 354 354 355 355 355 355 356 354 354 353 354 353 353 354 352 352 351 351 352 353
349 351 353 351 349 351 348 348 348 349 348 348 350 351 352 352 351 352 352 352 354 354 355 354 353 354 354 354 354 353 352 353 352 354 352 352 353 352 351 352 352 353
349 349 350 351 350 348 348 348 348 348 348 348 349 351 351 352 351 352 353 352 352 353 354 354 353 354 354 355 355 354 352 352 351 353 355 353 352 353 353 352 352 351
348 349 349 350 352 351 350 349 348 348 349 348 348 350 352 352 351 351 352 354 352 352 353 353 353 352 353 354 354 353 353 353 352 354 353 354 354 353 353 353 354 353
348 348 349 350 352 354 353 349 348 348 348 348 349 351 352 353 352 351 351 352 353 352 352 352 352 352 353 354 354 353 352 352 353 353 352 352 354 354 354 354 355 353
349 349 349 349 351 352 353 352 349 348 348 348 349 351 348 350 350 352 351 350 351 351 351 351 351 351 352 352 353 353 352 352 352 353 351 351 351 353 353 354 354 353
349 349 348 350 350 352 353 353 352 350 346 348 350 349 348 348 349 348 350 350 350 352 351 352 352 351 351 353 352 352 353 353 354 353 351 351 352 351 352 353 354 353
350 350 349 349 349 351 353 353 350 343 344 346 347 347 348 347 348 348 351 351 350 349 353 352 350 350 351 351 351 350 351 351 352 353 352 352 352 351 352 352 353 353
350 349 349 349 349 350 352 353 344 342 344 344 347 347 348 348 349 348 347 347 345 345 346 348 348 350 351 350 349 349 348 350 351 352 352 351 350 351 351 352 351 352
349 349 349 349 348 349 350 352 343 344 345 344 345 346 346 348 348 346 345 344 343 344 345 346 349 349 350 348 347 348 348 348 350 351 351 351 351 351 351 351 351 351
348 348 348 349 349 349 350 350 343 345 346 344 344 344 345 346 347 347 345 344 343 342 343 345 346 347 347 347 347 348 349 348 350 351 351 351 351 351 353 352 351 351
347 347 347 348 349 350 350 349 343 343 346 347 345 344 344 345 345 345 345 344 344 345 345 345 346 346 346 346 347 349 350 351 351 352 351 351 350 350 351 352 351 351
346 347 347 348 349 350 351 348 343 343 345 347 347 346 345 345 344 343 345 344 344 345 345 346 347 348 347 346 346 347 348 350 350 351 351 351 351 350 350 350 350 350
347 347 348 348 349 349 350 350 346 346 346 348 348 346 345 346 345 344 345 347 346 346 346 347 348 348 349 348 348 348 348 348 347 348 349 350 350 351 350 350 350 350
347 348 349 349 350 349 349 350 349 347 348 350 350 348 346 346 347 347 347 348 349 348 348 348 348 347 347 346 346 346 348 345 344 344 345 348 349 349 350 350 350 350
347 348 348 349 349 349 349 350 350 350 348 348 350 352 351 351 349 349 349 349 348 348 348 348 348 347 350 350 349 348 344 344 343 343 344 346 349 349 349 350 350 350
346 347 347 347 348 348 349 349 349 350 351 351 351 353 353 353 353 351 351 351 350 349 348 348 348 348 349 339 339 346 345 342 343 343 343 344 345 346 346 348 349 350
345 346 346 347 347 347 347 348 348 348 349 349 350 350 352 353 352 352 352 352 352 351 351 351 351 352 340 339 339 339 348 346 345 344 344 344 344 344 345 346 347 348
344 345 345 345 346 347 348 348 347 347 347 348 348 350 351 350 350 351 351 351 351 350 350 351 352 351 339 337 337 336 339 350 347 346 344 344 345 344 345 345 346 346
344 345 345 345 346 347 347 347 347 347 348 349 349 350 349 349 349 349 350 350 350 350 350 352 352 352 338 336 335 334 334 344 348 347 346 346 345 345 346 345 346 346
345 345 345 346 346 346 347 346 347 347 348 348 349 348 348 348 348 348 349 350 350 351 350 350 352 343 335 334 332 332 332 344 346 347 347 347 346 346 347 347 347 347
346 345 345 346 346 346 346 346 346 347 347 348 349 348 348 349 349 349 348 349 349 349 349 348 351 338 334 332 330 329 332 344 344 345 344 344 344 345 345 346 347 347
346 346 346 346 346 345 345 346 346 346 347 348 347 347 347 346 346 346 348 348 348 348 347 347 348 341 330 328 327 327 333 342 343 343 344 344 345 346 346 347 347 347
347 347 346 347 346 345 346 347 347 348 348 350 347 346 346 347 347 347 347 346 347 347 347 346 347 345 331 325 324 325 336 342 341 341 341 342 343 345 345 346 347 352
347 346 347 347 346 347 347 347 347 347 349 348 346 346 347 348 347 345 345 345 346 347 349 348 347 346 331 326 324 323 332 341 341 340 340 340 341 342 344 345 345 349
343 344 348 348 347 348 347 347 348 347 346 346 347 347 347 347 347 346 345 346 346 346 346 348 348 348 345 328 323 322 324 339 341 340 339 339 340 341 340 342 344 345
Wind_Speed
6 5 6 6 6 6 7 7 6 6 6 6 6 6 7 6 7 7 7 7 8 7 7 5 5 5 5 5 6 5 5 6 5 5 5 5 5 5 5 5 5 5
7 6 5 5 5 5 6 7 7 7 7 7 6 6 6 7 7 6 6 6 6 7 6 5 5 5 6 5 5 5 5 5 6 3 5 6 5 5 6 6 6 4
7 7 7 7 6 7 7 7 7 7 6 6 6 5 5 6 6 6 6 6 6 7 6 5 5 6 6 6 6 5 5 6 6 5 5 6 5 5 5 5 5 6
7 7 7 7 6 7 6 6 6 6 5 5 6 5 5 5 6 6 6 7 6 6 6 6 6 6 6 6 6 5 6 6 6 5 6 5 5 5 5 5 5 4
7 7 7 6 5 5 5 6 6 6 7 7 5 4 4 3 4 5 5 6 6 6 6 6 6 6 5 5 5 5 5 5 5 5 6 6 5 5 5 5 5 6
6 6 6 7 7 6 6 6 6 6 5 4 5 5 5 5 5 5 5 5 5 6 7 6 6 6 5 6 5 6 5 5 5 6 6 6 6 5 5 5 6 7
8 7 7 7 7 7 6 6 4 3 7 1 3 6 5 5 5 4 4 4 5 5 6 4 4 4 5 5 5 6 5 6 5 6 6 6 5 6 6 6 6 7
8 7 7 7 8 8 7 5 6 8 7 9 7 6 6 5 5 4 3 3 3 3 2 2 5 4 4 3 4 6 7 5 5 6 7 7 6 7 6 6 6 7
6 7 7 8 9 8 7 5 8 7 8 6 3 3 5 6 5 6 7 7 8 8 7 4 4 5 4 7 8 8 6 7 7 7 7 7 7 7 7 6 7 6
8 7 8 8 9 9 9 6 9 8 7 6 6 7 7 7 7 7 5 4 4 4 6 6 7 7 7 7 9 9 11 11 10 8 8 8 9 8 8 7 8 7
9 8 8 9 9 8 9 7 9 8 7 8 8 7 7 7 7 6 7 7 7 8 8 8 8 7 8 9 10 10 10 11 11 9 9 9 9 8 9 8 8 9
7 8 9 9 9 9 9 8 10 11 10 7 7 7 7 7 8 7 7 8 8 8 8 8 8 8 9 10 10 11 10 10 9 9 9 9 9 9 9 9 9 9
8 8 8 9 9 8 7 6 9 11 9 8 8 8 8 8 8 8 7 8 9 9 9 9 9 9 9 10 10 8 8 7 8 8 9 8 8 9 9 9 10 9
9 8 8 7 7 6 7 6 8 8 9 9 8 8 8 9 8 8 7 8 9 9 9 8 8 8 7 7 6 7 7 4 3 5 7 9 10 9 10 10 10 11
8 7 7 7 7 7 7 7 7 8 9 8 8 8 7 8 9 8 8 8 8 9 9 8 8 8 7 7 7 7 3 2 6 12 11 10 10 10 10 10 10 10
8 7 8 7 7 8 8 7 8 8 8 9 9 8 7 7 8 8 8 9 9 9 9 8 8 8 11 16 13 6 5 8 11 11 10 9 8 8 9 9 10 10
7 8 7 8 8 8 7 8 8 8 9 9 9 9 9 8 8 9 9 9 10 9 8 7 7 7 14 15 14 14 10 11 11 11 12 11 10 8 9 10 10 10
7 7 7 8 7 8 8 7 6 7 8 8 9 9 9 8 8 9 9 9 8 9 9 8 8 10 13 13 14 15 18 13 10 10 9 10 11 11 10 10 10 10
5 7 8 8 8 7 6 6 6 7 8 7 8 9 8 8 10 10 10 9 9 9 10 9 9 10 12 14 15 17 19 17 10 11 11 10 9 10 10 9 9 9
6 6 6 6 6 6 6 7 7 8 7 7 6 6 7 8 8 9 9 8 9 9 9 9 9 9 13 13 12 14 14 17 8 9 11 13 12 11 9 10 11 11
7 6 7 6 5 5 5 6 7 6 6 6 6 7 8 9 9 10 9 10 9 9 9 10 10 12 12 13 13 13 13 14 9 11 10 11 12 13 15 14 13 11
7 7 7 6 5 5 5 6 6 7 7 6 5 6 6 6 6 7 8 9 10 10 9 10 10 12 12 12 13 12 13 8 9 9 11 10 11 12 13 12 13 14
5 6 6 6 6 5 6 6 6 6 6 4 5 5 6 7 7 8 7 7 8 9 9 10 10 10 12 12 12 12 9 6 7 9 10 11 12 12 13 14 13 13
5 5 5 5 5 6 7 6 6 5 6 5 6 6 7 7 6 7 6 7 8 9 8 8 8 8 12 12 13 12 12 8 8 10 11 12 11 11 11 12 15 24
2 4 6 6 7 7 7 7 7 7 6 5 7 7 7 6 5 5 6 6 7 8 9 10 9 8 10 11 12 12 11 8 8 10 11 12 11 11 10 11 13 18
1 5 6 7 8 8 7 7 6 5 6 6 6 5 6 6 6 8 8 7 6 8 8 9 10 9 9 11 12 12 13 9 8 10 12 12 10 10 11 10 12 12
Wind_Direction
192 191 200 204 210 202 193 197 200 195 193 181 185 193 198 197 188 188 190 199 209 215 215 205 206 205 207 201 199 201 201 207 211 204 204 200 204 205 213 212 209 206
198 195 201 207 212 207 202 199 194 195 194 191 194 188 194 195 194 184 186 189 194 210 210 204 206 207 207 202 198 200 206 203 217 201 203 208 215 208 221 219 215 211
193 197 205 207 206 205 199 198 194 197 193 195 190 183 182 189 189 192 189 188 194 200 197 199 205 210 208 205 196 204 207 206 215 207 204 214 213 212 223 220 219 212
204 205 209 213 207 214 206 194 197 195 186 180 189 185 180 184 186 190 192 194 193 198 199 195 203 207 209 209 201 208 210 212 218 199 208 217 214 216 220 213 222 221
207 213 215 217 216 212 204 203 197 192 190 194 178 164 173 169 182 190 188 195 194 197 197 200 198 207 206 212 204 210 210 219 211 198 209 218 219 212 218 208 213 223
209 216 220 219 217 206 206 206 201 189 181 148 151 145 149 147 151 180 193 204 198 201 202 201 200 205 204 210 209 216 213 218 213 201 212 220 227 216 221 208 211 221
217 208 217 218 221 216 209 202 178 105 69 325 187 181 169 157 166 181 158 173 192 218 219 206 203 209 206 205 206 216 219 218 214 209 215 226 223 227 224 217 210 217
226 221 218 213 217 217 211 179 95 92 177 198 192 185 168 157 147 146 141 117 93 67 32 141 179 194 195 192 238 243 227 213 219 209 218 228 220 230 221 223 216 217
213 214 209 211 215 214 211 148 105 179 210 197 160 171 182 181 162 156 163 168 173 168 185 194 196 210 197 202 205 217 245 257 228 211 214 218 220 225 226 217 224 223
220 213 208 209 213 214 214 160 127 201 212 178 183 194 182 184 183 184 169 174 204 206 211 204 192 189 199 215 226 214 210 221 231 222 215 218 218 221 222 218 220 224
224 215 211 212 214 212 210 159 141 207 210 194 195 207 197 186 192 185 184 182 194 200 202 210 213 206 201 203 213 219 216 218 221 220 217 219 221 223 223 218 220 223
227 219 215 215 216 217 211 161 140 211 217 204 195 203 202 199 197 197 198 201 203 207 208 210 211 211 216 219 218 218 214 216 218 218 221 220 222 223 226 224 224 224
238 230 224 222 222 222 214 149 159 210 215 212 207 203 197 198 203 198 202 204 209 210 214 215 214 214 216 221 228 234 236 228 223 223 225 228 226 226 225 226 228 229
240 236 233 229 226 223 218 184 160 204 219 216 212 214 215 209 204 205 202 203 211 211 216 214 215 218 216 219 224 229 234 262 338 308 271 247 234 226 223 223 223 227
240 239 234 230 224 219 217 208 174 184 216 220 213 210 216 219 214 212 209 209 210 211 214 211 214 219 221 220 228 238 244 56 249 245 242 243 239 232 225 222 221 222
229 232 229 226 221 218 214 207 200 182 197 218 224 215 208 208 210 211 214 214 212 213 212 209 213 216 220 226 228 207 164 209 226 236 240 244 242 239 234 229 228 224
225 228 226 224 225 226 219 212 207 200 198 206 217 221 221 219 215 214 217 219 218 216 212 211 212 220 219 216 217 208 194 217 223 230 234 235 236 234 237 237 234 230
223 223 223 228 226 228 224 218 210 204 206 208 211 217 222 220 218 218 219 218 219 218 220 218 217 221 214 212 212 204 209 216 215 226 228 230 235 237 239 241 241 242
215 213 217 221 221 222 223 221 218 215 215 211 213 214 212 214 220 221 223 221 220 222 225 225 227 222 213 208 206 206 207 217 220 223 227 231 229 233 239 238 239 241
222 217 218 218 210 208 211 219 219 221 216 210 211 207 209 215 217 219 221 219 220 222 227 228 230 232 222 217 215 210 207 220 225 223 228 236 236 234 231 233 235 237
213 215 227 229 219 205 198 205 211 219 219 211 204 203 206 209 211 213 215 215 218 220 225 229 234 230 223 221 219 217 216 225 226 235 238 240 241 241 241 239 237 234
204 211 220 224 218 211 212 222 217 214 220 216 207 214 217 216 222 215 216 217 217 217 220 230 236 228 223 218 216 217 218 223 228 231 237 238 238 239 239 239 240 239
213 217 225 223 216 206 214 218 220 224 229 210 218 216 216 217 218 216 216 217 219 220 220 229 236 226 216 215 213 212 212 226 230 238 244 246 247 246 246 243 238 236
200 208 215 221 213 223 225 225 219 226 230 211 220 225 220 225 218 227 227 225 227 228 223 233 239 231 215 212 212 209 211 225 229 237 244 248 252 247 247 247 243 241
300 252 230 213 212 222 221 223 220 221 225 193 211 228 236 231 228 241 246 233 227 228 227 233 245 247 226 219 217 213 217 228 230 241 249 251 253 253 247 247 245 246
145 246 237 228 221 218 208 217 219 210 221 211 216 211 227 228 224 227 229 233 223 229 233 231 240 248 244 228 223 223 220 227 233 245 251 256 253 252 255 249 246 245